Wind_Speed
40 39 40 38 37 35 32 31 27 22 20 17 15 17 15 16 16 15 14 10 10 7 8 8 9 9 9 10 12 13 12 11 10 10 10 8 5 6 8 10 11 13 14 15 16 17 19 20 21
44 41 43 42 42 38 35 35 33 26 24 16 22 19 20 20 20 17 17 13 9 6 6 8 10 11 11 11 12 12 11 9 8 7 6 6 6 7 8 10 12 12 12 13 15 17 19 21 22
49 46 44 47 45 41 37 39 35 29 27 15 18 25 25 24 21 19 19 17 13 8 5 8 10 11 12 11 11 11 11 9 7 5 5 5 7 7 7 8 9 10 12 13 15 17 19 21 24
55 52 49 49 45 42 40 41 36 31 28 21 22 30 30 26 23 21 17 16 16 12 8 7 9 11 12 11 11 10 9 7 5 4 2 2 5 6 7 8 9 10 12 14 16 20 21 23 24
59 57 54 49 46 46 47 44 37 33 28 21 24 34 24 26 26 20 17 18 17 14 11 10 9 11 11 10 9 7 5 4 4 4 2 2 4 7 7 8 10 11 12 14 16 19 21 23 24
62 59 59 52 47 48 49 44 44 36 30 27 25 29 30 27 24 26 20 16 17 14 13 13 11 10 7 6 5 5 6 5 6 5 5 6 7 8 10 10 11 14 15 16 18 21 22 22 23
62 60 60 55 49 49 51 50 45 42 35 32 32 22 29 32 30 26 27 19 19 16 13 13 13 11 9 6 5 4 6 6 7 7 8 11 13 15 17 17 15 14 17 18 19 21 24 25 25
61 61 63 56 52 50 52 52 48 45 43 34 26 25 24 24 20 27 24 21 18 17 15 11 10 9 10 9 7 8 9 8 10 11 13 17 19 21 22 22 21 19 18 21 21 22 23 26 28
63 64 59 59 53 52 52 53 53 46 42 39 33 26 30 22 19 22 22 20 18 16 14 12 10 8 7 6 7 9 10 11 14 17 21 24 24 25 26 26 26 26 23 23 24 24 25 26 28
66 65 59 58 57 55 53 51 52 50 44 41 36 35 30 25 23 26 24 25 22 21 20 17 15 13 14 15 15 14 13 14 17 19 21 25 26 28 27 29 28 27 25 23 24 26 26 28 29
66 65 59 59 63 58 54 51 50 51 50 44 40 37 35 32 31 30 24 23 24 24 24 23 20 20 20 19 17 16 17 18 21 22 23 27 28 27 28 30 31 29 24 22 23 26 28 30 32
67 67 60 61 64 64 56 51 50 51 52 50 48 43 39 34 34 32 30 23 19 19 22 25 24 24 23 22 21 19 19 18 24 28 27 30 31 31 32 32 33 28 24 24 25 26 28 30 33
68 66 60 60 64 67 60 52 48 49 51 52 49 49 38 38 36 34 31 28 21 18 18 20 24 25 24 26 26 24 16 21 23 25 30 33 35 39 33 31 29 29 28 29 32 28 29 32 34
67 66 61 59 63 65 66 53 50 50 51 50 52 48 47 35 37 34 33 29 29 23 18 19 21 27 28 15 13 18 24 24 25 27 29 30 36 35 35 36 35 38 35 39 38 33 34 37 39
67 65 62 59 59 65 67 65 51 50 51 50 48 50 51 51 42 37 35 32 31 28 24 23 29 24 9 18 20 27 24 20 25 29 28 30 35 27 29 42 37 43 43 42 43 44 44 42 45
65 62 62 58 56 62 67 69 60 53 53 50 47 45 43 47 50 50 44 34 34 28 24 22 25 25 30 27 27 29 24 28 29 33 36 37 30 27 26 28 34 41 43 44 39 44 53 53 54
64 63 62 59 56 59 63 68 66 59 57 53 48 46 43 41 41 43 42 42 42 35 33 34 35 33 30 24 25 22 29 38 40 40 39 39 38 34 34 32 36 39 42 43 41 47 54 54 55
63 60 58 55 56 57 61 64 65 67 66 56 58 56 49 46 44 39 38 36 35 35 33 33 32 27 23 23 29 31 41 43 42 38 39 40 42 42 38 35 34 39 41 43 48 49 51 52 50
57 57 57 55 56 55 58 63 65 66 68 64 56 46 53 53 51 48 45 42 40 38 38 40 39 39 39 38 39 42 47 47 43 38 36 39 41 44 40 38 42 44 46 47 49 49 49 51 51
58 55 53 52 53 55 57 58 60 62 59 58 59 56 56 49 47 43 43 42 39 37 38 40 42 42 42 44 44 45 45 44 39 38 36 39 39 39 38 40 41 43 46 46 48 48 50 50 50
55 54 52 51 52 55 56 56 56 58 61 61 60 58 57 55 53 52 56 54 49 47 48 48 50 49 49 48 47 49 47 47 45 43 45 46 46 47 46 46 46 46 48 47 47 47 49 48 46
48 49 49 50 52 52 54 54 53 53 54 58 60 61 60 58 57 55 52 50 49 50 49 47 49 53 52 51 51 50 50 47 47 51 52 53 53 51 52 52 51 53 54 55 55 54 53 54 51
42 41 44 49 49 52 52 54 53 55 54 49 52 55 57 58 58 58 56 56 54 53 53 53 52 50 48 47 48 49 50 50 48 51 53 54 55 55 54 57 60 60 61 59 58 58 56 55 54
37 39 41 44 47 49 50 51 53 51 51 54 53 51 51 51 52 52 54 52 52 50 48 46 46 45 45 46 49 50 50 51 53 52 52 52 53 56 56 57 58 58 60 56 58 55 50 51 52
35 36 39 42 45 49 51 50 51 51 52 52 52 53 52 51 51 50 49 50 50 48 47 46 45 43 45 47 49 50 50 51 52 53 52 51 52 54 53 53 56 58 56 58 56 53 53 54 55
41 40 42 46 49 51 51 51 52 51 52 53 53 54 52 51 50 50 49 49 48 46 46 43 42 39 39 43 46 47 48 49 48 48 49 47 47 49 49 51 53 55 58 58 57 57 58 57 58
36 37 39 43 46 48 48 48 52 53 53 53 53 53 52 51 49 49 49 48 43 40 40 38 37 38 39 43 45 46 46 46 49 48 48 47 48 49 49 49 51 52 53 52 52 53 54 55 56
26 25 32 34 37 40 42 43 48 47 49 50 50 49 47 47 48 45 41 35 34 36 38 38 40 43 45 46 46 47 50 49 45 43 42 43 44 44 45 45 46 48 50 51 52 53 55 57 59
27 28 31 30 33 36 41 38 36 36 47 43 41 44 43 45 44 43 34 35 38 39 40 39 39 39 40 43 46 46 45 40 41 36 36 37 37 37 39 42 44 46 49 53 56 59 61 62 65
16 13 16 15 17 19 20 24 23 21 21 21 26 30 33 36 34 34 38 41 41 35 35 35 33 31 30 32 34 34 35 35 32 33 35 37 38 40 42 44 48 53 56 61 64 65 66 65 65
Wind_Direction
217 219 217 207 202 208 217 220 215 222 209 214 202 193 164 162 166 165 156 152 152 148 176 188 169 163 153 153 142 135 129 121 114 107 98 86 69 51 29 33 38 36 30 25 21 17 11 7 3
213 216 219 212 204 203 212 222 215 223 216 217 195 189 173 168 169 167 152 136 138 132 171 182 168 159 152 155 143 137 132 128 125 111 90 73 49 38 40 45 40 34 27 19 14 9 6 1 358
209 212 217 216 207 200 209 221 217 222 228 226 197 191 186 184 177 175 167 154 151 148 170 181 173 159 152 150 140 138 138 136 125 111 87 56 49 45 34 35 28 22 15 10 7 2 0 356 357
207 208 213 218 208 203 209 219 217 217 232 220 206 199 187 191 188 183 169 166 163 160 167 183 186 170 160 159 153 143 143 147 137 121 99 38 13 4 9 5 5 3 4 3 4 1 358 357 355
226 205 209 214 209 205 213 215 216 212 218 224 202 200 222 190 190 187 183 169 165 169 175 183 187 184 176 173 173 161 155 176 190 196 221 307 327 326 337 342 340 343 344 346 348 350 352 351 351
229 215 206 206 210 208 217 217 217 207 208 211 197 196 180 180 182 195 190 187 175 174 186 194 195 198 192 179 188 199 208 222 244 253 262 282 306 306 315 329 333 330 329 331 333 335 339 341 343
226 222 216 204 203 210 214 220 220 215 206 209 220 207 187 194 200 199 198 191 187 181 189 202 217 228 238 234 236 244 255 254 270 295 312 315 314 313 316 322 325 325 323 322 326 328 328 331 334
222 225 219 210 201 208 214 218 222 220 217 211 208 215 218 227 228 201 206 203 197 192 198 204 218 238 254 253 264 273 272 279 293 307 320 318 319 321 322 320 318 319 318 318 320 321 323 326 330
219 224 219 215 206 206 213 215 220 226 221 218 211 211 211 225 230 222 222 212 210 207 211 217 218 217 232 261 274 270 282 300 311 317 319 318 319 320 319 317 318 316 316 316 317 320 321 322 324
217 220 221 211 209 212 212 214 217 222 227 224 218 211 208 211 211 218 217 215 209 208 218 223 228 232 245 258 268 281 295 304 302 305 314 312 313 314 314 315 310 308 309 312 315 317 319 320 321
216 216 217 211 208 210 213 216 214 219 223 230 229 222 222 225 228 232 235 242 229 224 222 226 226 225 234 245 256 267 283 290 294 300 301 299 300 298 301 302 304 304 302 304 311 315 320 320 322
215 214 213 211 210 203 212 215 217 217 221 225 230 230 221 221 227 235 234 225 224 240 243 245 247 245 248 254 256 258 272 287 295 291 298 300 290 287 292 297 298 296 295 299 306 312 317 319 318
214 213 212 209 211 208 207 215 217 219 220 222 226 232 232 233 228 222 221 224 236 250 256 265 254 254 259 265 268 276 267 289 297 294 297 299 300 290 283 292 293 291 294 294 302 305 313 315 314
212 211 211 208 209 209 208 212 215 221 219 221 225 230 227 215 216 221 223 220 231 235 242 239 253 249 253 235 275 292 299 294 297 294 299 297 297 288 274 281 282 290 299 295 298 306 312 312 310
210 209 210 208 206 211 209 211 214 220 222 220 223 228 234 231 228 222 219 218 230 233 241 249 251 236 251 283 291 289 282 283 299 298 294 295 300 297 281 281 278 291 297 292 289 295 305 311 309
210 209 207 207 205 209 210 214 212 219 222 221 223 226 229 233 237 243 242 237 223 235 240 258 260 277 287 284 272 263 265 294 299 302 296 293 292 286 280 284 286 285 289 291 291 293 296 298 300
209 207 205 205 204 206 212 216 220 220 225 225 225 227 228 230 233 236 238 241 247 251 255 259 259 266 269 275 257 257 284 297 296 293 295 288 286 283 288 287 284 282 287 287 290 290 292 295 298
207 206 206 206 207 205 210 214 219 223 225 225 235 234 235 237 236 237 238 241 244 247 249 247 251 255 270 256 258 267 284 293 297 294 293 290 283 280 284 283 286 285 285 286 284 289 292 295 296
208 208 206 204 205 207 209 211 218 223 227 229 232 236 235 242 247 250 252 252 251 250 248 245 249 257 264 265 261 269 275 282 290 288 283 283 281 282 283 282 280 282 282 282 281 285 287 290 290
206 205 204 205 205 207 209 210 214 219 226 232 237 237 240 241 243 247 250 251 251 252 253 256 259 260 262 266 269 271 275 282 286 280 277 278 279 284 286 284 281 279 278 279 282 284 286 286 290
206 205 202 205 207 207 210 213 214 221 221 228 232 237 241 242 244 249 253 258 259 260 263 263 264 266 268 272 273 276 279 281 281 274 270 275 276 276 277 280 280 283 284 284 284 282 283 282 280
206 206 202 204 207 211 212 215 216 220 224 226 231 235 239 244 247 248 252 256 258 260 263 266 268 273 275 276 278 278 280 279 278 278 274 275 275 272 270 272 275 278 283 285 285 280 277 277 278
207 209 206 206 208 212 212 217 218 220 225 229 231 235 239 243 246 249 251 254 257 260 262 265 270 272 273 275 279 279 278 279 278 277 275 274 275 276 274 274 281 283 283 284 282 280 278 277 281
205 206 205 206 212 216 217 218 222 223 227 229 232 235 238 241 244 248 251 253 255 258 261 263 266 269 272 275 274 274 276 277 276 274 272 273 273 275 276 275 278 279 282 280 281 281 280 283 285
194 198 201 205 211 217 221 221 224 223 228 231 232 236 239 242 247 249 251 253 253 256 261 264 266 267 267 270 273 274 275 274 273 273 274 275 273 272 274 276 276 278 277 279 281 286 288 289 289
194 198 201 202 207 214 218 222 224 226 227 232 234 237 239 241 244 250 254 258 262 265 264 266 267 260 261 267 265 267 269 270 272 273 273 272 273 277 277 277 277 278 280 282 287 291 292 292 291
199 203 203 208 211 215 219 222 228 228 228 231 236 238 241 244 245 246 250 256 263 259 259 255 251 261 260 261 260 261 267 268 275 277 279 281 284 285 288 288 290 290 289 289 288 287 287 286 286
197 214 213 217 217 223 229 229 232 234 236 237 237 241 244 247 250 253 255 257 254 252 254 255 256 255 257 261 263 268 271 275 280 284 290 292 291 291 290 289 289 289 288 287 287 286 287 287 288
199 201 204 214 222 225 230 231 240 242 242 243 245 244 244 245 247 249 246 242 246 251 256 256 256 258 259 264 267 270 276 283 290 291 288 286 286 288 289 288 288 291 294 296 296 295 293 292 290
188 198 200 211 216 219 223 229 242 240 238 228 223 225 232 235 236 238 236 241 244 244 245 249 247 252 257 263 267 277 287 288 282 283 287 291 294 295 297 298 298 297 298 299 298 296 295 293 292
Height
5873 5879 5882 5886 5891 5893 5895 5899 5901 5903 5909 5912 5915 5916 5917 5919 5921 5924 5923 5925 5926 5927 5928 5929 5929 5930 5930 5931 5931 5932 5933 5934 5936 5934 5933 5934 5935 5935 5935 5935 5934 5933 5933 5932 5930 5928 5927 5924 5922
5866 5873 5877 5881 5884 5888 5892 5894 5899 5903 5907 5910 5913 5915 5916 5918 5919 5921 5922 5923 5926 5927 5928 5928 5929 5930 5930 5932 5932 5932 5933 5934 5935 5935 5935 5935 5936 5936 5936 5935 5935 5934 5933 5932 5930 5929 5927 5924 5921
5858 5865 5871 5873 5879 5884 5888 5890 5896 5901 5904 5908 5910 5913 5914 5916 5917 5920 5920 5922 5924 5926 5928 5929 5930 5930 5931 5932 5932 5933 5933 5935 5936 5936 5937 5937 5937 5936 5936 5935 5934 5934 5933 5932 5931 5929 5927 5925 5922
5848 5856 5862 5866 5876 5883 5882 5886 5892 5899 5901 5906 5907 5910 5912 5914 5917 5919 5919 5921 5923 5925 5927 5929 5930 5930 5931 5932 5932 5933 5933 5935 5936 5937 5937 5936 5937 5937 5936 5935 5934 5933 5932 5932 5931 5929 5927 5925 5922
5837 5845 5851 5861 5872 5877 5877 5880 5887 5896 5898 5902 5903 5906 5910 5914 5916 5918 5920 5920 5921 5924 5925 5927 5929 5930 5930 5931 5933 5934 5936 5936 5937 5937 5936 5936 5935 5936 5934 5934 5934 5932 5931 5930 5930 5928 5926 5924 5921
5827 5840 5843 5853 5865 5872 5873 5876 5882 5890 5896 5900 5902 5903 5907 5911 5914 5916 5918 5920 5921 5923 5925 5926 5928 5929 5930 5932 5934 5934 5936 5936 5937 5937 5936 5936 5935 5934 5933 5932 5931 5930 5929 5928 5926 5926 5924 5921 5919
5820 5832 5842 5847 5858 5864 5868 5871 5877 5884 5891 5895 5899 5904 5906 5908 5910 5913 5915 5918 5919 5921 5924 5925 5927 5929 5931 5932 5933 5935 5936 5936 5937 5938 5938 5938 5937 5936 5934 5932 5929 5927 5926 5925 5923 5921 5920 5919 5916
5814 5821 5832 5844 5850 5858 5862 5866 5872 5878 5884 5891 5895 5899 5902 5904 5908 5911 5914 5916 5918 5920 5923 5925 5927 5929 5931 5932 5933 5935 5935 5936 5937 5938 5938 5937 5936 5936 5934 5932 5930 5926 5923 5922 5920 5918 5916 5915 5912
5803 5808 5822 5839 5846 5851 5853 5859 5866 5871 5878 5885 5892 5897 5898 5901 5907 5910 5913 5915 5917 5919 5922 5924 5925 5927 5930 5931 5932 5933 5934 5935 5936 5935 5935 5935 5933 5932 5931 5929 5927 5926 5922 5920 5917 5915 5912 5910 5907
5792 5802 5814 5828 5837 5843 5847 5853 5860 5867 5871 5878 5887 5891 5896 5900 5905 5909 5910 5911 5914 5916 5919 5921 5923 5926 5928 5929 5930 5931 5931 5931 5930 5930 5930 5929 5928 5927 5926 5925 5923 5921 5919 5916 5914 5911 5909 5907 5904
5785 5796 5805 5817 5824 5834 5840 5846 5852 5860 5867 5872 5880 5887 5891 5896 5902 5905 5907 5910 5912 5913 5915 5918 5921 5922 5924 5925 5926 5926 5926 5926 5925 5925 5923 5923 5922 5921 5919 5918 5917 5916 5914 5911 5908 5907 5904 5902 5900
5776 5786 5797 5807 5816 5824 5832 5839 5845 5854 5861 5867 5872 5877 5886 5890 5896 5900 5904 5908 5910 5913 5915 5917 5918 5919 5921 5921 5921 5921 5921 5922 5922 5919 5918 5916 5915 5914 5913 5913 5912 5911 5911 5908 5906 5902 5900 5898 5896
5766 5779 5790 5797 5805 5816 5823 5831 5838 5847 5855 5860 5865 5871 5879 5885 5889 5894 5899 5904 5906 5909 5912 5914 5915 5915 5917 5918 5917 5918 5917 5918 5917 5915 5913 5911 5909 5908 5907 5906 5905 5904 5905 5904 5901 5897 5893 5891 5890
5758 5769 5781 5789 5798 5809 5817 5824 5830 5838 5848 5854 5859 5863 5873 5877 5882 5888 5894 5898 5902 5904 5907 5909 5909 5909 5910 5911 5913 5914 5914 5912 5911 5909 5908 5905 5903 5899 5900 5899 5899 5897 5897 5898 5896 5891 5887 5885 5883
5746 5759 5771 5781 5791 5800 5811 5817 5824 5831 5839 5846 5853 5858 5865 5872 5877 5881 5887 5891 5896 5898 5902 5904 5903 5906 5904 5907 5908 5909 5908 5907 5906 5904 5903 5900 5897 5893 5893 5894 5891 5889 5889 5889 5888 5885 5881 5877 5875
5736 5748 5761 5776 5784 5792 5801 5810 5816 5824 5831 5839 5845 5852 5858 5864 5870 5875 5879 5884 5889 5893 5895 5898 5899 5899 5899 5901 5902 5902 5902 5902 5900 5899 5897 5894 5892 5890 5887 5887 5885 5883 5882 5880 5878 5878 5874 5871 5868
5725 5743 5757 5767 5777 5785 5793 5802 5808 5816 5824 5831 5838 5844 5850 5856 5863 5869 5874 5880 5884 5886 5889 5893 5895 5895 5896 5897 5897 5898 5898 5896 5894 5892 5891 5888 5887 5885 5884 5881 5879 5877 5875 5874 5871 5869 5866 5863 5859
5726 5740 5752 5763 5773 5780 5787 5798 5802 5808 5816 5824 5831 5836 5843 5850 5856 5863 5868 5874 5877 5880 5883 5886 5887 5888 5891 5892 5893 5892 5891 5889 5886 5885 5883 5881 5880 5879 5877 5875 5873 5871 5869 5867 5864 5860 5857 5854 5851
5725 5736 5745 5752 5761 5772 5781 5788 5792 5799 5806 5814 5821 5829 5835 5842 5849 5855 5861 5868 5872 5873 5875 5879 5881 5884 5886 5887 5888 5887 5885 5882 5880 5879 5877 5875 5872 5870 5869 5867 5866 5864 5860 5857 5854 5851 5847 5845 5842
5713 5726 5740 5748 5756 5765 5772 5779 5784 5791 5799 5807 5814 5821 5829 5834 5840 5846 5850 5856 5861 5864 5866 5870 5872 5875 5878 5878 5877 5876 5875 5874 5873 5871 5870 5867 5865 5863 5861 5860 5857 5854 5851 5847 5843 5841 5838 5836 5831
5709 5722 5734 5743 5749 5757 5765 5772 5780 5787 5795 5801 5808 5814 5820 5828 5834 5838 5842 5846 5849 5852 5855 5858 5860 5863 5865 5865 5865 5864 5864 5864 5864 5863 5861 5859 5857 5855 5852 5849 5847 5844 5840 5837 5833 5832 5828 5824 5821
5707 5717 5729 5735 5743 5752 5758 5768 5776 5782 5788 5795 5801 5808 5813 5818 5824 5830 5834 5837 5839 5842 5845 5848 5850 5851 5853 5853 5854 5854 5852 5853 5853 5851 5849 5847 5845 5844 5842 5840 5837 5834 5831 5827 5823 5820 5817 5813 5810
5703 5713 5724 5732 5737 5743 5754 5760 5770 5774 5781 5790 5795 5800 5805 5810 5816 5820 5824 5828 5832 5834 5836 5840 5841 5842 5842 5842 5844 5844 5842 5841 5842 5840 5840 5838 5835 5832 5830 5827 5824 5822 5819 5815 5812 5809 5806 5803 5800
5698 5708 5720 5728 5734 5741 5748 5757 5761 5772 5778 5780 5786 5792 5795 5800 5805 5811 5814 5820 5824 5827 5828 5830 5831 5832 5833 5833 5832 5833 5834 5834 5832 5831 5830 5827 5825 5822 5819 5816 5814 5810 5807 5805 5802 5799 5795 5791 5787
5694 5704 5715 5724 5729 5736 5740 5749 5758 5765 5769 5774 5779 5782 5787 5792 5797 5802 5807 5810 5813 5817 5819 5820 5821 5821 5822 5823 5822 5822 5822 5821 5821 5819 5817 5815 5814 5812 5809 5806 5803 5801 5797 5794 5790 5786 5783 5780 5776
5691 5701 5710 5716 5721 5728 5734 5742 5749 5756 5762 5765 5770 5774 5779 5785 5789 5792 5796 5800 5804 5808 5809 5811 5811 5812 5813 5813 5813 5812 5811 5811 5809 5808 5807 5805 5802 5800 5798 5796 5793 5791 5788 5784 5779 5774 5769 5765 5761
5692 5699 5706 5713 5718 5723 5730 5736 5739 5746 5753 5758 5761 5766 5771 5776 5781 5786 5788 5792 5794 5796 5798 5800 5803 5804 5804 5803 5803 5802 5801 5800 5799 5798 5795 5793 5792 5790 5788 5786 5783 5780 5776 5771 5767 5762 5757 5752 5748
5692 5701 5706 5711 5718 5722 5727 5732 5735 5740 5745 5750 5755 5759 5764 5769 5773 5776 5781 5783 5784 5786 5789 5791 5793 5792 5793 5793 5794 5794 5792 5791 5789 5788 5786 5784 5783 5781 5778 5774 5770 5766 5762 5758 5754 5749 5744 5739 5735
5689 5692 5700 5706 5712 5717 5721 5726 5729 5733 5737 5742 5746 5751 5756 5760 5764 5768 5772 5775 5776 5778 5780 5781 5782 5782 5783 5784 5784 5783 5782 5781 5780 5779 5776 5774 5771 5768 5765 5762 5759 5755 5750 5745 5740 5734 5729 5724 5719
5690 5695 5700 5705 5711 5713 5718 5723 5725 5728 5731 5735 5739 5743 5748 5752 5756 5761 5764 5766 5769 5772 5773 5774 5775 5775 5776 5776 5776 5776 5776 5773 5770 5768 5765 5762 5759 5756 5753 5750 5747 5743 5737 5731 5725 5718 5711 5705 5700